FW6870 Weather Reports


Display with metric or nautical units.
time (UTC)temp
F
wind
direction
speed
MPH
gust
MPH
rain 1hr
in
rain 24hr
in
rain mn
in
humidity
%
barometer
mb
20260502123025 55 117 4.0 8.0 0.00 0.00 0.00 93 1012.7
20260502121527 55 128 3.0 6.0 0.00 0.00 0.00 94 1013.3
20260502114527 54 360 3.0 7.0 0.00 0.00 0.00 95 1013.2
20260502113028 54 116 3.0 8.0 0.00 0.00 0.00 95 1012.9
20260502111527 54 121 4.0 7.0 0.00 0.00 0.00 95 1012.4
20260502110029 54 92 2.0 8.0 0.00 0.00 0.00 95 1012.3
20260502104528 54 61 4.0 9.0 0.00 0.00 0.00 95 1011.8
20260502103026 55 40 5.0 7.0 0.00 0.00 0.00 94 1012.3
20260502101525 55 49 5.0 9.0 0.00 0.00 0.00 94 1011.9
20260502091528 55 360 4.0 6.0 0.00 0.00 0.00 93 1011.6
20260502071526 57 49 3.0 5.0 0.00 0.00 0.00 86 1012.2
20260502070042 57 45 4.0 5.0 0.00 0.00 0.00 86 1012.3
20260502064537 57 44 4.0 6.0 0.00 0.00 0.00 85 1012.4
20260502063029 57 55 3.0 5.0 0.00 0.00 0.00 85 1012.3
20260502061528 57 59 4.0 6.0 0.00 0.00 0.00 85 1012.3
20260502060029 57 46 1.0 4.0 0.00 0.00 0.00 84 1012.4
20260502054528 58 34 3.0 5.0 0.00 0.00 0.00 82 1012.6
20260502053029 59 22 3.0 4.0 0.00 0.00 0.00 78 1012.5
20260502051529 59 0 0.0 0.0 0.00 0.00 0.00 79 1012.6
20260502050034 59 0 0.0 0.0 0.00 0.00 0.00 79 1012.8
20260502044525 59 0 0.0 0.0 0.00 0.00 0.00 79 1013.1
20260502043027 59 0 0.0 0.0 0.00 0.00 0.00 78 1013.2
20260502041533 59 0 0.0 0.0 0.00 0.00 0.00 78 1013.3
20260502040028 59 0 0.0 0.0 0.00 0.00 0.00 78 1013.3
20260502034536 59 0 0.0 0.0 0.00 0.00 0.00 78 1013.4
20260502033025 60 0 0.0 0.0 0.00 0.00 0.00 76 1013.5
20260502031527 60 213 1.0 4.0 0.00 0.00 0.00 75 1013.6
20260502030026 60 206 2.0 4.0 0.00 0.00 0.00 74 1013.7
20260502024527 60 209 3.0 5.0 0.00 0.00 0.00 74 1013.5
20260502023028 60 193 4.0 6.0 0.00 0.00 0.00 75 1013.6
20260502021528 60 182 4.0 5.0 0.00 0.00 0.00 75 1013.4
20260502020028 60 200 3.0 6.0 0.00 0.00 0.00 74 1013.4
20260502014547 60 211 4.0 7.0 0.00 0.00 0.00 74 1013.2
20260502013030 60 206 4.0 6.0 0.00 0.00 0.00 74 1013.3
20260502011526 60 189 3.0 5.0 0.00 0.00 0.00 75 1013.3
20260502010026 60 200 3.0 4.0 0.00 0.00 0.00 74 1013.2
20260502004526 60 226 2.0 4.0 0.00 0.00 0.00 74 1013.1
20260502003028 61 227 3.0 5.0 0.00 0.00 0.00 74 1012.7
20260502001528 61 221 3.0 6.0 0.00 0.00 0.00 74 1012.9
20260502000044 61 197 3.0 5.0 0.00 0.00 0.00 75 1012.8
20260501234528 61 191 4.0 7.0 0.00 0.00 0.00 72 1012.6
20260501233028 61 217 4.0 9.0 0.00 0.00 0.00 72 1012.6
20260501231526 62 228 4.0 10.0 0.00 0.00 0.00 70 1012.2
20260501230027 62 213 4.0 8.0 0.00 0.00 0.00 69 1012.2
20260501224528 63 186 1.0 9.0 0.00 0.00 0.00 68 1012.1
20260501223026 62 199 2.0 5.0 0.00 0.00 0.00 68 1012.1
20260501221530 62 223 3.0 5.0 0.00 0.00 0.00 66 1012.4
20260501220028 63 234 3.0 7.0 0.00 0.00 0.00 65 1012.6
20260501214535 63 236 2.0 7.0 0.00 0.00 0.00 65 1012.7
20260501213025 63 210 2.0 8.0 0.00 0.00 0.00 65 1012.8
20260501211527 63 247 4.0 9.0 0.00 0.00 0.00 64 1013.2
20260501210028 63 239 4.0 8.0 0.00 0.00 0.00 63 1013.1
20260501204531 63 202 6.0 9.0 0.00 0.00 0.00 61 1013.3
20260501203033 64 230 2.0 8.0 0.00 0.00 0.00 61 1013.3
20260501201528 64 216 3.0 5.0 0.00 0.00 0.00 61 1013.3
20260501200029 64 250 4.0 8.0 0.00 0.00 0.00 58 1013.5
20260501194531 64 0 0.0 4.0 0.00 0.00 0.00 59 1013.8
20260501193032 64 257 0.0 7.0 0.00 0.00 0.00 58 1014.0
20260501191530 63 224 3.0 5.0 0.00 0.00 0.00 58 1014.2
20260501190029 62 0 1.0 5.0 0.00 0.00 0.00 59 1014.5
20260501184527 63 159 2.0 6.0 0.00 0.00 0.00 58 1014.6
20260501183042 62 0 0.0 3.0 0.00 0.00 0.00 59 1014.7
20260501181536 62 161 3.0 6.0 0.00 0.00 0.00 60 1015.0
20260501180034 61 182 5.0 8.0 0.00 0.00 0.00 58 1015.1
20260501174540 60 117 1.0 7.0 0.00 0.00 0.00 60 1015.3
20260501173026 60 118 5.0 8.0 0.00 0.00 0.00 58 1015.3
20260501171526 59 131 3.0 10.0 0.00 0.00 0.00 58 1015.3
20260501170026 60 142 1.0 6.0 0.00 0.00 0.00 61 1015.2
20260501164528 59 136 4.0 9.0 0.00 0.00 0.00 60 1015.4
20260501163033 59 128 5.0 11.0 0.00 0.00 0.00 61 1015.6
20260501161530 59 132 8.0 13.0 0.00 0.00 0.00 59 1015.5
20260501160030 59 124 6.0 13.0 0.00 0.00 0.00 60 1015.7
20260501154530 59 117 9.0 15.0 0.00 0.00 0.00 57 1016.1
20260501153030 58 117 8.0 15.0 0.00 0.00 0.00 59 1016.3
20260501151526 58 136 5.0 13.0 0.00 0.00 0.00 62 1016.0
20260501150030 57 72 4.0 12.0 0.00 0.00 0.00 65 1016.3